TimeMDT,TemperatureF,Dew PointF,Humidity,Sea Level PressureIn,VisibilityMPH,Wind Direction,Wind SpeedMPH,Gust SpeedMPH,PrecipitationIn,Events,Conditions,WindDirDegrees,DateUTC
12:53 AM,53.1,37.0,55,30.12,10.0,SSE,4.6,-,N/A,,Clear,150,2012-09-05 06:53:00
1:53 AM,54.0,36.0,51,30.11,10.0,South,4.6,-,N/A,,Clear,190,2012-09-05 07:53:00
2:53 AM,51.1,36.0,56,30.10,10.0,SSW,5.8,-,N/A,,Clear,200,2012-09-05 08:53:00
3:53 AM,48.9,36.0,61,30.10,10.0,SSW,6.9,-,N/A,,Clear,200,2012-09-05 09:53:00
4:53 AM,50.0,35.1,57,30.09,10.0,Calm,Calm,-,N/A,,Clear,0,2012-09-05 10:53:00
5:53 AM,46.0,36.0,68,30.09,10.0,SW,5.8,-,N/A,,Clear,220,2012-09-05 11:53:00
6:53 AM,45.0,36.0,71,30.09,10.0,SW,10.4,-,N/A,,Clear,220,2012-09-05 12:53:00
7:53 AM,48.0,36.0,63,30.09,10.0,WSW,11.5,-,N/A,,Clear,240,2012-09-05 13:53:00
8:53 AM,50.0,37.0,61,30.07,10.0,SSW,9.2,-,N/A,,Clear,210,2012-09-05 14:53:00
9:53 AM,55.0,39.0,55,30.04,10.0,SW,8.1,-,N/A,,Clear,220,2012-09-05 15:53:00
10:53 AM,62.1,37.0,39,29.99,10.0,WSW,10.4,-,N/A,,Clear,240,2012-09-05 16:53:00
11:53 AM,66.0,37.9,36,29.96,10.0,SSW,5.8,-,N/A,,Clear,210,2012-09-05 17:53:00
12:53 PM,72.0,39.0,30,29.92,10.0,SSW,9.2,-,N/A,,Clear,200,2012-09-05 18:53:00
1:53 PM,78.1,35.1,21,29.88,10.0,WSW,13.8,-,N/A,,Clear,240,2012-09-05 19:53:00
2:53 PM,79.0,35.1,20,29.86,10.0,SSW,12.7,19.6,N/A,,Clear,200,2012-09-05 20:53:00
3:53 PM,80.1,33.1,18,29.83,10.0,SW,10.4,-,N/A,,Clear,230,2012-09-05 21:53:00
4:53 PM,81.0,30.9,16,29.82,10.0,SW,9.2,-,N/A,,Clear,230,2012-09-05 22:53:00
5:53 PM,81.0,33.1,18,29.82,10.0,WSW,5.8,-,N/A,,Clear,240,2012-09-05 23:53:00
6:53 PM,80.1,25.0,13,29.83,10.0,NNW,12.7,-,N/A,,Clear,340,2012-09-06 00:53:00
7:53 PM,75.0,23.0,14,29.85,10.0,NNW,9.2,-,N/A,,Clear,330,2012-09-06 01:53:00
8:53 PM,68.0,28.9,23,29.88,10.0,NNE,8.1,-,N/A,,Clear,20,2012-09-06 02:53:00
9:53 PM,66.0,30.9,27,29.89,10.0,NNE,8.1,-,N/A,,Clear,30,2012-09-06 03:53:00
10:53 PM,64.9,32.0,29,29.89,10.0,NNE,10.4,-,N/A,,Clear,30,2012-09-06 04:53:00
11:53 PM,62.1,32.0,32,29.91,10.0,North,9.2,-,N/A,,Clear,10,2012-09-06 05:53:00